Regional Weather Roundup
Issued by NWS

Home | Current Version | Previous Version | Graphics & Text | Print | Product List | Glossary Off
Versions: 1 2 3 4 5 6 7 8 9 10 11 12 13 14 15 16 17 18 19 20 21 22 23 24 25 26 27 28 29 30 31 32 33 34 35 36 37 38 39 40 41 42 43 44 45 46 47 48 49 50

000
ASUS43 KMKX 050300
RWRWI

WISCONSIN REGIONAL WEATHER ROUNDUP
NATIONAL WEATHER SERVICE MILWAUKEE/SULLIVAN WI
1000 PM CDT TUE AUG 04 2015

NOTE: "FAIR" INDICATES FEW OR NO CLOUDS BELOW 12,000 FEET WITH NO
SIGNIFICANT WEATHER AND/OR OBSTRUCTIONS TO VISIBILITY.

WIZ001-002-006>008-014>016-023>028-050400-
NORTHWEST WISCONSIN

CITY           SKY/WX    TMP DP  RH WIND       PRES   REMARKS
SUPERIOR ARPT  CLOUDY    57  51  81 NE5       30.04R
ASHLAND        CLEAR     55  53  93 E5        30.05R
HAYWARD        PTCLDY    58  53  84 NE7       30.04R
SIREN          CLEAR     62  55  78 CALM      30.03R
CUMBERLAND     CLEAR     63  54  72 NE3       30.02R
RICE LAKE      CLEAR     61  55  78 NE3       30.03R
CHETEK         CLEAR     66  58  76 CALM      30.02R
LADYSMITH      CLEAR     60  55  83 NE5       30.05R
EAU CLAIRE     CLEAR     64  58  80 CALM      30.00R
MENOMONIE      CLEAR     68  56  67 CALM      30.01R
NEW RICHMOND   CLEAR     62  57  83 CALM      30.02R
OSCEOLA        CLEAR     63  60  90 CALM      30.03R
$$

WIZ003>005-009-010-017-018-050400-
NORTH CENTRAL WISCONSIN

CITY           SKY/WX    TMP DP  RH WIND       PRES   REMARKS
MANITOWISH WTR CLEAR     57  51  80 CALM      30.05R
ARBOR VITAE    CLEAR     57  52  83 N5        30.05R
WOODRUFF       CLEAR     57  52  83 N5        30.05R
RHINELANDER    CLOUDY    60  52  74 CALM      30.05R
EAGLE RIVER    CLEAR     56  48  74 N6        30.04R
LAND O LAKES   CLEAR     56  50  80 N5        30.06R
PHILLIPS       MOCLDY    57  53  85 CALM      30.04R
TOMAHAWK       CLOUDY    60  52  76 CALM      30.05R
MEDFORD        MOCLDY    55  55  97 CALM      30.03R
MERRILL        NOT AVBL
$$

WIZ029-030-035-036-043>047-050400-
CENTRAL WISCONSIN

CITY           SKY/WX    TMP DP  RH WIND       PRES   REMARKS
WAUSAU         MOCLDY    63  54  72 CALM      30.02R
MOSINEE        CLEAR     61  55  82 CALM      30.03R
MARSHFIELD     CLEAR     62  54  74 CALM      30.02R
STEVENS POINT  PTCLDY    60  53  77 CALM      30.03R
WAUPACA        CLEAR     63  56  80 CALM      30.01S
WAUTOMA        NOT AVBL
WISC RAPIDS    CLEAR     61  53  75 CALM      30.03R
CAMP DOUGLAS   NOT AVBL
$$

WIZ011>013-019>022-031-037>040-048>050-050400-
NORTHEAST WISCONSIN

CITY           SKY/WX    TMP DP  RH WIND       PRES   REMARKS
ANTIGO         PTCLDY    56  52  86 CALM      30.04R
SHAWANO        PTCLDY    65  55  67 CALM      30.01R
OCONTO         MOCLDY    63  58  85 NE5       30.01R
STURGEON BAY   CLEAR     63  55  77 E5        30.04R
GREEN BAY      CLEAR     62  58  86 N5        30.01R
MANITOWOC      NOT AVBL
APPLETON       PTCLDY    64  52  63 NW6       30.02R
CLINTONVILLE   PTCLDY    63  52  67 CALM      30.01R
OSHKOSH        CLEAR     62  55  77 CALM      30.01R
$$

WIZ032>034-041-042-053>061-050400-
SOUTHWEST WISCONSIN

CITY           SKY/WX    TMP DP  RH WIND       PRES   REMARKS
LA CROSSE      CLEAR     67  58  72 SE6       30.01R
SPARTA         CLEAR     61  55  80 E3        30.02S
VIROQUA        CLEAR     65  55  69 SW3       30.05R
BOSCOBEL       PTCLDY    62  58  86 CALM      30.04R
PRAIRIE DU CHI PTCLDY    64  57  79 CALM      30.03R
PLATTEVILLE    PTCLDY    67  57  70 CALM      30.04S
$$

WIZ056-057-062-063-064-067-068-050400-
SOUTH CENTRAL WISCONSIN

CITY           SKY/WX    TMP DP  RH WIND       PRES   REMARKS
REEDSBURG      CLEAR     66  56  70 CALM      30.03R
BARABOO/DELLS  CLEAR     65  53  64 S3        30.03R
LONE ROCK      NOT AVBL
MINERAL POINT  PTCLDY    68  54  60 CALM      30.05R
MADISON        MOCLDY    66  54  65 CALM      30.02R
MIDDLETON      PTCLDY    62  56  82 CALM      30.04R
WATERTOWN      CLOUDY    67  59  76 CALM      30.02R
MONROE         PTCLDY    70  54  56 W6        30.04R
JANESVILLE     PTCLDY    64  57  77 CALM      30.03R
$$

WIZ051-052-058>065-066-070>072-050400-
SOUTHEAST WISCONSIN

CITY           SKY/WX    TMP DP  RH WIND       PRES   REMARKS
MILWAUKEE      PTCLDY    68  56  65 S5        30.02R
WAUKESHA       CLEAR     63  52  67 CALM      30.03R
MILWAUKEE/TIMM CLEAR     68  50  52 CALM      30.02R
RACINE         PTCLDY    66  57  72 S5        30.04R
BURLINGTON     PTCLDY    59  55  88 SW3       30.03R
KENOSHA        PTCLDY    63  56  78 SW3       30.03R
FOND DU LAC    CLEAR     63  56  78 W3        30.01R
SHEBOYGAN      PTCLDY    60  55  83 CALM      30.01R
WEST BEND      CLEAR     63  55  77 CALM      30.02R
JUNEAU         CLEAR     62  57  84 CALM      30.03S
$$

LSZ147-162-050400-
LAKE SUPERIOR

STATION/POSITION TIME  TEMP    WIND        PRES    WAVE
                       AIR SEA DIR/SP/G            HT/PER
                 (UTC) (F)     (DEG/KT/KT) (MB)    (FT/S)
W MID LAKE BUOY  0150   58 58  220/  6/  8 1016.8R   0
DEVILS ISLAND    0200   60     140/  6/  7 1017.3R
PORT WING        0200   64      90/  2/  4 1016.9R
SAXON HARBOR     0240   57      CALM  /  2 1016.9R
$$

LMZ867-665-643>646-050400-
LAKE MICHIGAN

STATION/POSITION TIME  TEMP    WIND        PRES    WAVE
                       AIR SEA DIR/SP/G            HT/PER
                 (UTC) (F)     (DEG/KT/KT) (MB)    (FT/S)
CHAMBERS ISLAND  0200   65      40/  7/ 10 1015.9R
N MID LAKE BUOY  0150   63 69  350/ 14/ 16 1015.3R   0
NORTHPORT PIER   0200   64      40/  7/  9 1015.9R
SISTER BAY       0103   66      30/  5/  6   N/A
ALGOMA LAKESHORE 0213           40/  6/  8   N/A
KEWAUNEE LAKESHO 0200   63      40/  6/  8 1015.0R
SHEBOYGAN LAKESH 0200   71     320/  3/  4 1015.7R
PORT WASHINGTON  0200   73     310/  2/  4 1016.3
ATWATER BUOY     0200   69 66  190/  8/ 10 1017.1R
MILWAUKEE LAKESH 0200   66     230/  3/  3   N/A
KENOSHA   LAKESH 0200   70     200/  6/  7 1015.6R
$$

TC  - TEMPERATURE IN CELSIUS
VSB - VISIBILITY IN STATUTE MILES
WCI - WIND CHILL INDEX
HX  - HEAT INDEX




USA.gov is the U.S. government's official web portal to all federal, state and local government web resources and services.